Location: Muenchen
(48.1800°N, 11.5800°E)
Time: 17:31:37
(UTC+02:00)

ISS - All Passes

Search period start: 01 May 2016 00:00
Search period end: 11 May 2016 00:00
Orbit: 402 x 405 km, 51.6° (Epoch: 01 May)

Date Brightness Start Highest point End Pass type
(mag) Time Alt. Az. Time Alt. Az. Time Alt. Az.
01 May - 08:53:28 10° SSW 08:56:20 28° SE 08:59:13 10° E daylight
01 May - 10:29:22 10° WSW 10:32:38 68° NNW 10:35:54 10° ENE daylight
01 May - 12:06:13 10° WNW 12:09:23 43° N 12:12:32 10° ENE daylight
01 May - 13:42:48 10° WNW 13:46:05 84° NNE 13:49:22 10° ESE daylight
01 May - 15:19:43 10° W 15:22:15 21° SW 15:24:47 10° S daylight
02 May - 08:01:47 10° S 08:04:03 18° SE 08:06:19 10° E daylight
02 May - 09:36:51 10° WSW 09:40:08 85° SSE 09:43:25 10° ENE daylight
02 May - 11:13:38 10° WNW 11:16:48 44° N 11:19:57 10° ENE daylight
02 May - 12:50:19 10° WNW 12:53:34 61° NNE 12:56:49 10° E daylight
02 May - 14:26:56 10° W 14:29:56 34° SW 14:32:55 10° SSE daylight
03 May - 07:11:21 10° SE 07:11:49 10° SE 07:12:18 10° SE daylight
03 May - 08:44:29 10° SW 08:47:41 55° SSE 08:50:54 10° ENE daylight
03 May - 10:21:01 10° W 10:24:12 49° N 10:27:25 10° ENE daylight
03 May - 11:57:49 10° WNW 12:01:00 49° N 12:04:12 10° E daylight
03 May - 13:34:19 10° WNW 13:37:32 55° SSW 13:40:45 10° SE daylight
03 May - 15:12:48 10° WSW 15:13:24 10° SW 15:14:01 10° SW daylight
04 May - 07:52:18 10° SSW 07:55:17 33° SE 07:58:17 10° E daylight
04 May - 09:28:23 10° W 09:31:38 62° NNW 09:34:53 10° ENE daylight
04 May - 11:05:15 10° WNW 11:08:25 44° N 11:11:34 10° ENE daylight
04 May - 12:41:48 10° WNW 12:45:05 86° SSW 12:48:21 10° ESE daylight
04 May - 14:18:52 10° W 14:21:10 18° SW 14:23:26 10° S daylight
05 May - 07:00:26 10° S 07:02:57 21° SE 07:05:28 10° E daylight
05 May - 08:35:49 10° WSW 08:39:06 85° NNW 08:42:23 10° ENE daylight
05 May - 10:12:39 10° WNW 10:15:47 43° N 10:18:56 10° ENE daylight
05 May - 11:49:17 10° WNW 11:52:32 67° NNE 11:55:48 10° ESE daylight
05 May - 13:25:57 10° W 13:28:50 29° SW 13:31:43 10° SSE daylight
06 May - 06:09:14 10° SSE 06:10:39 12° SE 06:12:05 10° ESE daylight
06 May - 07:43:21 10° SW 07:46:36 64° SSE 07:49:50 10° ENE daylight
06 May - 09:19:58 10° W 09:23:10 47° N 09:26:21 10° ENE daylight
06 May - 10:56:45 10° WNW 10:59:58 52° NNE 11:03:10 10° E daylight
06 May - 12:33:16 10° WNW 12:36:26 47° SSW 12:39:36 10° SE daylight
07 May - 06:51:04 10° SW 06:54:08 39° SSE 06:57:14 10° ENE daylight
07 May - 08:27:19 10° W 08:30:33 57° NNW 08:33:47 10° ENE daylight
07 May - 10:04:10 10° WNW 10:07:20 45° N 10:10:30 10° E daylight
07 May - 11:40:41 10° WNW 11:43:58 76° SSW 11:47:13 10° ESE daylight
07 May - 13:18:01 10° W 13:19:58 15° SW 13:21:56 10° S daylight
08 May - 05:59:03 10° SSW 06:01:45 24° SE 06:04:28 10° E daylight
08 May - 07:34:41 10° WSW 07:37:58 76° NNW 07:41:14 10° ENE daylight
08 May - 09:11:32 10° WNW 09:14:41 43° N 09:17:50 10° ENE daylight
08 May - 10:48:08 10° WNW 10:51:25 75° NNE 10:54:41 10° ESE daylight
08 May - 12:24:54 10° W 12:27:39 25° SW 12:30:22 10° SSE daylight
09 May - 05:07:31 10° S 05:09:25 15° SE 05:11:19 10° E visible
09 May - 06:42:09 10° WSW 06:45:25 74° SSE 06:48:41 10° ENE daylight
09 May - 08:18:52 10° W 08:22:02 45° N 08:25:12 10° ENE daylight
09 May - 09:55:35 10° WNW 09:58:49 56° NNE 10:02:03 10° E daylight
09 May - 11:32:09 10° WNW 11:35:14 40° SSW 11:38:19 10° SE daylight
10 May - 05:49:46 10° SW 05:52:55 46° SSE 05:56:05 10° ENE daylight
10 May - 07:26:09 10° W 07:29:23 53° NNW 07:32:36 10° ENE daylight
10 May - 09:02:59 10° WNW 09:06:10 46° N 09:09:21 10° E daylight
10 May - 10:39:30 10° WNW 10:42:45 66° SSW 10:45:59 10° SE daylight
10 May - 12:17:10 10° WSW 12:18:41 13° SW 12:20:13 10° SSW daylight
